Miscellaneous Local Product
Issued by NWS North Platte, NE

Home | Current Version | Previous Version | Graphics & Text | Print | Product List | Glossary On
Versions: 1 2 3 4 5 6 7 8 9 10 11 12 13 14 15 16 17 18 19 20 21 22 23 24 25 26 27 28 29 30 31 32 33 34 35 36 37 38 39 40 41 42 43 44 45 46 47 48 49 50
000
AXUS43 KLBF 192110
MISLBF


WESTERN AND NORTH CENTRAL NEBRASKA HOURLY WEATHER ROUNDUP
NATIONAL WEATHER SERVICE NORTH PLATTE NE
300 PM CST THU JAN 19 2017

NOTE: "FAIR" INDICATES FEW OR NO CLOUDS BELOW 12,000 FEET WITH NO
SIGNIFICANT WEATHER AND/OR OBSTRUCTIONS TO VISIBILITY.

NOTE: STATIONS NOT REPORTING VARIABLES SUCH AS SKY/WEATHER OR
PRESSURE ARE PROVIDED BY RAWS AND APRS NETWORKS AND ARE NOT UNDER
NATIONAL WEATHER SERVICE QUALITY CONTROL.

...OBSERVATIONS IN AND NEAR THE EASTERN PANHANDLE OF NEBRASKA...

CITY           SKY/WX    TMP DP  RH WIND       PRES   REMARKS
PINE RIDGE     SUNNY     41  27  57 SW14      29.46F
CHADRON        SUNNY     41  27  57 W5        29.48F
ALLIANCE       SUNNY     52  22  30 W10       29.48F
SIDNEY         SUNNY     53  22  29 VRB3      29.51F
CRESCENT LAKE    N/A     49  31  50 S6          N/A
$$

...OBSERVATIONS IN NORTHERN NEBRASKA AND FAR SOUTHERN SOUTH DAKOTA...

CITY           SKY/WX    TMP DP  RH WIND       PRES   REMARKS
WINNER         FAIR      49  35  58 S14       29.48F
VALENTINE      SUNNY     56  21  25 W16       29.47F
THEDFORD       SUNNY     42  35  76 S12       29.52F
AINSWORTH      SUNNY     42  36  78 S16       29.50F
O`NEILL        CLOUDY    43  42  98 S10       29.57R FOG
ORD            CLOUDY    41  39  93 S8        29.57S FOG
BROKEN BOW     CLOUDY    41  40  96 SW9       29.56S FOG
VALENTINE NWR    N/A     48  33  57 S13         N/A
BUTTE            N/A     39  38  97 S7G15       N/A  WCI  34
HALSEY           N/A     39  38  97 S7          N/A  WCI  34
SARGENT          N/A     41  32  69 CALM        N/A
CHAMBERS         N/A     42  41  97 S3          N/A
EWING            N/A     40  39  97 S6          N/A
$$

...OBSERVATIONS IN SOUTHWEST NEBRASKA AND FAR NORTHEAST COLORADO...

CITY           SKY/WX    TMP DP  RH WIND       PRES   REMARKS
WRAY           FAIR      46  23  39 CALM      29.53
HOLYOKE        FAIR      50  27  40 CALM      29.52F
IMPERIAL       SUNNY     43  34  70 VRB7      29.53F
OGALLALA       SUNNY     49  32  52 CALM      29.52F
NORTH PLATTE   CLOUDY    39  39 100 S3        29.56F FOG
MCCOOK         CLOUDY    36  36 100 W6        29.58R FOG     WCI  31
LEXINGTON      CLOUDY    42  40  95 S6        29.58S
STAPLETON        N/A     37  36  96 CALM        N/A
GOTHENBURG       N/A     42  39  88 S3          N/A
CALLAWAY         N/A     40  39  97 SW9         N/A  WCI  34
$$

...OBSERVATIONS IN CENTRAL LINCOLN COUNTY AREA...

CITY           SKY/WX    TMP DP  RH WIND       PRES   REMARKS
N.P. AIRPORT   CLOUDY    39  39 100 S3        29.56F FOG
N.P. DOWNTOWN    N/A     38  38 100 S3          N/A
N.P. SOUTHEAST   N/A     38  37  96 S3          N/A
N.P. HILLCREST   N/A     38  38 100 S5          N/A  WCI  34
$$

...SOME OBSERVATIONS FROM AROUND THE REGION...

CITY           SKY/WX    TMP DP  RH WIND       PRES   REMARKS
LARAMIE        CLOUDY    27  19  72 N10       29.59F WCI  17
CHEYENNE       SUNNY     55  11  17 W9        29.52F
DENVER         MOSUNNY   53  17  24 E10       29.51F
AKRON          SUNNY     46  23  40 NW6       29.52F
SCOTTSBLUFF    SUNNY     54  24  31 CALM      29.49F
RAPID CITY     SUNNY     34  25  69 S3        29.46S
BISMARCK       CLOUDY    26  20  77 E5        29.47F WCI  20
PIERRE         CLOUDY    30  23  75 N3        29.49S
SIOUX FALLS    FOG       37  37 100 S9        29.64F VSB 1/2 WCI  30
OMAHA          CLOUDY    45  40  82 S5        29.67F FOG
GRAND ISLAND   CLOUDY    42  42 100 S8        29.61F FOG
KANSAS CITY    CLOUDY    48  44  86 SE9       29.67F
WICHITA        CLOUDY    52  45  77 SE8       29.58F
OKLAHOMA CITY  PTSUNNY   59  45  59 S18G25    29.54F
DALLAS         MOSUNNY   66  52  60 S16       29.62F
AMARILLO       SUNNY     62  23  22 NW8       29.54F
DODGE CITY     CLOUDY    45  38  76 W5        29.55F
HAYS           CLOUDY    45  43  93 SE9       29.58F
GOODLAND       SUNNY     41  35  79 CALM      29.53F
$$




USA.gov is the U.S. government's official web portal to all federal, state and local government web resources and services.